一网星座-0055星 (ONEWEB-0055 )

导读 | 豆包AI

ONEWEB-0055是英国(GB)于2020年3月21日08:00发射的OneWeb低轨卫星星座组网卫星,属于OneWeb全球卫星互联网计划的组成部分,服务于全球高速互联网接入,为偏远地区、航空航海等场景提供宽带通信服务,推进全球网络覆盖与星地一体化通信网络建设,是OneWeb大规模低轨星座部署中的重要节点。

基本信息
目录编号:
45443
目录名称:
ONEWEB-0055
国际标识:
2020-020V
轨道中心:
EARTH
卫星名称:
一网星座-0055星
卫星全名:
一网星座-0055星 (ONEWEB-0055 )
卫星状态:
在轨 (已飞行2184 天)
发射日期:
2020-03-21 UTC
国别 :
英国 (GB)
星等 :
--
轨道信息
数据来源 国际轨道数据 AOE轨道数据
星历时间 2026-03-13T16:23:03+0800
16小时前
查看轨道信息
2026-03-13T14:00:00+0800
19小时前
查看轨道信息
半长轴 7595.815km 7595.836km
偏心率 0.0001889 0.0001623
轨道倾角 87.887° 87.887°
近地点辐角 83.962° 56.207°
升交点赤经 40.117° 40.138°
平近点角 276.173° 195.186°
近地点 1216.243km 1216.466km
远地点 1219.113km 1218.932km
周期 109.805分钟 109.805分钟
每日圈数 13.114184 13.114129
详细信息
平衡模式:
三轴稳定
覆盖范围:
全球
运营商:
一网卫星公司
运营商所在国:
英国
制造商(研发单位):
一网卫星公司
制造商所在国:
英国
使用方式:
暂无
卫星简介
OneWeb卫星网络由648颗重约125公斤的微型卫星组成,运行在1200公里的轨道上。 每颗卫星都能够提供至少每秒8千兆位的吞吐量,以使用其高吞吐量的Ku频段有效载荷为家庭和移动平台提供互联网接入。该卫星仍在工作。
2D轨道图
3D轨道图
轨道高度分析图
轨道倾角分析图
轨道综合分析图
查看轨道综合分析图